QPF
0.00 0.00 0.00 0.00 0.00 0.00 0.00 0.00 0.00 0.00 0.00 0.00 0.00 0.00 0.00 0.00 0.00 0.00 0.00 0.00 0.00 0.00 0.00 0.00 0.00 0.00 0.00 0.00 0.00 0.00 0.00 0.00 0.00 0.00 0.00 0.00 0.00 0.00 0.00 0.00 0.00 0.00 0.00 0.01
0.00 0.00 0.00 0.00 0.00 0.00 0.00 0.00 0.00 0.00 0.00 0.00 0.00 0.00 0.00 0.00 0.00 0.00 0.00 0.00 0.00 0.00 0.00 0.00 0.00 0.00 0.00 0.00 0.00 0.00 0.00 0.00 0.00 0.00 0.00 0.00 0.00 0.00 0.00 0.00 0.00 0.00 0.00 0.00
0.00 0.00 0.00 0.00 0.00 0.00 0.00 0.00 0.00 0.00 0.00 0.00 0.00 0.00 0.00 0.00 0.00 0.00 0.00 0.00 0.00 0.00 0.00 0.00 0.00 0.00 0.00 0.00 0.00 0.00 0.00 0.00 0.00 0.00 0.00 0.00 0.00 0.00 0.00 0.00 0.00 0.00 0.00 0.00
0.00 0.00 0.00 0.00 0.00 0.00 0.00 0.00 0.00 0.00 0.00 0.00 0.00 0.00 0.00 0.00 0.00 0.00 0.00 0.00 0.00 0.00 0.00 0.00 0.00 0.00 0.00 0.00 0.00 0.00 0.00 0.00 0.00 0.00 0.00 0.00 0.00 0.00 0.00 0.00 0.00 0.00 0.00 0.00
0.00 0.00 0.00 0.00 0.00 0.00 0.00 0.00 0.00 0.00 0.00 0.00 0.00 0.00 0.00 0.00 0.00 0.00 0.00 0.00 0.00 0.00 0.00 0.00 0.00 0.00 0.00 0.00 0.00 0.00 0.00 0.00 0.00 0.00 0.00 0.00 0.00 0.00 0.00 0.00 0.00 0.00 0.00 0.00
0.00 0.00 0.00 0.00 0.00 0.00 0.00 0.00 0.00 0.00 0.00 0.00 0.00 0.00 0.00 0.00 0.00 0.00 0.00 0.00 0.00 0.00 0.00 0.00 0.00 0.00 0.00 0.00 0.00 0.00 0.00 0.00 0.00 0.00 0.00 0.00 0.00 0.00 0.00 0.00 0.00 0.00 0.00 0.00
0.00 0.00 0.00 0.00 0.00 0.00 0.00 0.00 0.00 0.00 0.00 0.00 0.00 0.00 0.00 0.00 0.00 0.00 0.00 0.00 0.00 0.00 0.00 0.00 0.00 0.00 0.00 0.00 0.00 0.00 0.00 0.00 0.00 0.00 0.00 0.00 0.00 0.00 0.00 0.00 0.00 0.00 0.00 0.00
0.00 0.00 0.00 0.00 0.00 0.00 0.00 0.00 0.00 0.00 0.00 0.00 0.00 0.00 0.00 0.00 0.00 0.00 0.00 0.00 0.00 0.00 0.00 0.00 0.00 0.00 0.00 0.00 0.00 0.00 0.00 0.00 0.00 0.00 0.00 0.00 0.00 0.00 0.00 0.00 0.00 0.00 0.00 0.00
0.00 0.00 0.00 0.00 0.00 0.00 0.00 0.00 0.00 0.00 0.00 0.00 0.00 0.00 0.00 0.00 0.00 0.00 0.00 0.00 0.00 0.00 0.00 0.00 0.00 0.00 0.00 0.00 0.00 0.00 0.00 0.00 0.00 0.00 0.00 0.00 0.00 0.00 0.00 0.00 0.01 0.00 0.00 0.00
0.00 0.00 0.00 0.00 0.00 0.00 0.00 0.00 0.00 0.00 0.00 0.00 0.00 0.00 0.00 0.00 0.00 0.00 0.00 0.00 0.00 0.00 0.00 0.00 0.00 0.00 0.00 0.00 0.00 0.00 0.00 0.00 0.00 0.00 0.00 0.00 0.00 0.00 0.00 0.01 0.04 0.02 0.00 0.00
0.00 0.00 0.00 0.00 0.00 0.00 0.00 0.00 0.00 0.00 0.00 0.00 0.00 0.00 0.00 0.00 0.00 0.00 0.00 0.00 0.00 0.00 0.00 0.00 0.00 0.00 0.00 0.00 0.00 0.00 0.00 0.00 0.00 0.00 0.00 0.00 0.00 0.00 0.00 0.01 0.03 0.02 0.01 0.01
0.00 0.00 0.00 0.00 0.00 0.00 0.00 0.00 0.00 0.00 0.00 0.00 0.00 0.00 0.00 0.00 0.00 0.00 0.00 0.00 0.00 0.00 0.00 0.00 0.00 0.00 0.00 0.00 0.00 0.00 0.00 0.00 0.00 0.00 0.00 0.00 0.00 0.00 0.00 0.00 0.01 0.01 0.01 0.02
0.00 0.00 0.00 0.00 0.00 0.00 0.00 0.00 0.00 0.00 0.00 0.00 0.00 0.00 0.00 0.00 0.00 0.00 0.00 0.00 0.00 0.00 0.00 0.00 0.00 0.00 0.00 0.00 0.00 0.00 0.00 0.00 0.00 0.00 0.00 0.00 0.00 0.00 0.00 0.00 0.00 0.00 0.00 0.01
0.00 0.00 0.00 0.00 0.00 0.00 0.00 0.00 0.00 0.00 0.00 0.00 0.00 0.00 0.00 0.00 0.00 0.00 0.00 0.00 0.00 0.00 0.00 0.00 0.00 0.00 0.00 0.00 0.00 0.00 0.00 0.00 0.00 0.00 0.00 0.00 0.00 0.00 0.00 0.00 0.00 0.00 0.00 0.00
0.00 0.00 0.00 0.00 0.00 0.00 0.00 0.00 0.00 0.00 0.00 0.00 0.00 0.00 0.00 0.00 0.00 0.00 0.00 0.00 0.00 0.00 0.00 0.00 0.00 0.00 0.00 0.00 0.00 0.00 0.00 0.00 0.00 0.00 0.00 0.00 0.00 0.00 0.00 0.00 0.00 0.00 0.00 0.00
0.00 0.00 0.00 0.00 0.00 0.00 0.00 0.00 0.00 0.00 0.00 0.00 0.00 0.00 0.00 0.00 0.00 0.00 0.00 0.00 0.00 0.00 0.00 0.00 0.00 0.00 0.00 0.00 0.00 0.00 0.00 0.00 0.00 0.00 0.00 0.00 0.00 0.00 0.00 0.00 0.00 0.00 0.01 0.01
0.00 0.00 0.00 0.00 0.00 0.00 0.00 0.00 0.00 0.00 0.00 0.00 0.00 0.00 0.00 0.00 0.00 0.00 0.00 0.00 0.00 0.00 0.00 0.00 0.00 0.00 0.00 0.00 0.00 0.00 0.00 0.00 0.00 0.00 0.00 0.00 0.00 0.00 0.00 0.00 0.01 0.01 0.01 0.01
0.00 0.00 0.00 0.00 0.00 0.00 0.00 0.00 0.00 0.00 0.00 0.00 0.00 0.00 0.00 0.00 0.00 0.00 0.00 0.00 0.00 0.00 0.00 0.00 0.00 0.00 0.00 0.00 0.00 0.00 0.00 0.00 0.00 0.00 0.00 0.00 0.00 0.00 0.00 0.00 0.01 0.01 0.01 0.01
0.00 0.00 0.00 0.00 0.00 0.00 0.00 0.00 0.00 0.00 0.00 0.00 0.00 0.00 0.00 0.00 0.00 0.00 0.00 0.00 0.00 0.00 0.00 0.00 0.00 0.00 0.00 0.00 0.00 0.00 0.00 0.00 0.00 0.00 0.00 0.00 0.00 0.00 0.00 0.00 0.01 0.01 0.01 0.01
0.00 0.00 0.00 0.00 0.00 0.00 0.00 0.00 0.00 0.00 0.00 0.00 0.00 0.00 0.00 0.00 0.00 0.00 0.00 0.00 0.00 0.00 0.00 0.00 0.00 0.00 0.00 0.00 0.00 0.00 0.00 0.00 0.00 0.00 0.00 0.00 0.00 0.00 0.00 0.00 0.01 0.01 0.01 0.01
0.00 0.00 0.00 0.00 0.00 0.00 0.00 0.00 0.00 0.00 0.00 0.00 0.00 0.00 0.00 0.00 0.00 0.00 0.00 0.00 0.00 0.00 0.00 0.00 0.00 0.00 0.00 0.00 0.00 0.00 0.00 0.00 0.00 0.00 0.00 0.00 0.00 0.00 0.00 0.00 0.00 0.01 0.01 0.01
0.00 0.00 0.00 0.00 0.00 0.00 0.00 0.00 0.00 0.00 0.00 0.00 0.00 0.00 0.00 0.00 0.00 0.00 0.00 0.00 0.00 0.00 0.00 0.00 0.00 0.00 0.00 0.00 0.00 0.00 0.00 0.00 0.00 0.00 0.00 0.00 0.00 0.00 0.00 0.00 0.01 0.01 0.01 0.01
0.00 0.00 0.00 0.00 0.00 0.00 0.00 0.00 0.00 0.00 0.00 0.00 0.00 0.00 0.00 0.00 0.00 0.00 0.00 0.00 0.00 0.00 0.00 0.00 0.00 0.00 0.00 0.00 0.00 0.00 0.00 0.00 0.00 0.00 0.00 0.00 0.00 0.00 0.00 0.00 0.01 0.01 0.01 0.01
0.00 0.00 0.00 0.00 0.00 0.00 0.00 0.00 0.00 0.00 0.00 0.00 0.00 0.00 0.00 0.00 0.00 0.00 0.00 0.00 0.00 0.00 0.00 0.00 0.00 0.00 0.00 0.00 0.00 0.00 0.00 0.00 0.00 0.00 0.00 0.00 0.00 0.00 0.00 0.00 0.01 0.01 0.01 0.01
0.00 0.00 0.00 0.00 0.00 0.00 0.00 0.00 0.00 0.00 0.00 0.00 0.00 0.00 0.00 0.00 0.00 0.00 0.00 0.00 0.00 0.00 0.00 0.00 0.00 0.00 0.00 0.00 0.00 0.00 0.00 0.00 0.00 0.00 0.00 0.00 0.00 0.00 0.00 0.00 0.00 0.01 0.01 0.01
0.00 0.00 0.00 0.00 0.00 0.00 0.00 0.00 0.00 0.00 0.00 0.00 0.00 0.00 0.00 0.00 0.00 0.00 0.00 0.00 0.00 0.00 0.00 0.00 0.00 0.00 0.00 0.00 0.00 0.00 0.00 0.00 0.00 0.00 0.00 0.00 0.00 0.00 0.00 0.00 0.00 0.01 0.01 0.01
0.00 0.00 0.00 0.00 0.00 0.00 0.00 0.00 0.00 0.00 0.00 0.00 0.00 0.00 0.00 0.00 0.00 0.00 0.00 0.00 0.00 0.00 0.00 0.00 0.00 0.00 0.00 0.00 0.00 0.00 0.00 0.00 0.00 0.00 0.00 0.00 0.00 0.00 0.00 0.00 0.00 0.00 0.01 0.01
MSLP
1029.08 1028.79 1028.50 1028.23 1028.01 1027.88 1027.84 1027.94 1028.17 1028.56 1029.10 1029.80 1030.65 1031.61 1032.65 1033.71 1034.76 1035.72 1036.56 1037.23 1037.72 1038.00 1038.11 1038.04 1037.83 1037.50 1037.09 1036.62 1036.10 1035.55 1034.97 1034.37 1033.75 1033.10 1032.42 1031.71 1030.93 1030.09 1029.17 1028.15 1027.04 1025.84 1024.59 1023.32
1029.45 1029.02 1028.55 1028.08 1027.67 1027.37 1027.23 1027.27 1027.53 1028.01 1028.69 1029.55 1030.56 1031.67 1032.81 1033.94 1034.99 1035.91 1036.69 1037.28 1037.68 1037.91 1037.98 1037.90 1037.72 1037.43 1037.07 1036.64 1036.15 1035.62 1035.05 1034.44 1033.81 1033.14 1032.46 1031.74 1030.99 1030.17 1029.28 1028.31 1027.24 1026.09 1024.87 1023.62
1029.88 1029.29 1028.63 1027.95 1027.35 1026.90 1026.65 1026.66 1026.95 1027.52 1028.34 1029.36 1030.53 1031.77 1033.01 1034.18 1035.22 1036.10 1036.79 1037.30 1037.62 1037.79 1037.82 1037.75 1037.59 1037.35 1037.04 1036.66 1036.21 1035.71 1035.14 1034.53 1033.89 1033.22 1032.53 1031.83 1031.10 1030.33 1029.50 1028.60 1027.61 1026.54 1025.39 1024.21
1030.26 1029.52 1028.67 1027.81 1027.05 1026.46 1026.14 1026.13 1026.46 1027.12 1028.07 1029.24 1030.55 1031.90 1033.21 1034.41 1035.43 1036.26 1036.88 1037.30 1037.55 1037.66 1037.67 1037.60 1037.47 1037.27 1037.01 1036.68 1036.28 1035.79 1035.24 1034.63 1033.97 1033.30 1032.61 1031.93 1031.23 1030.52 1029.77 1028.97 1028.08 1027.11 1026.07 1024.98
1030.44 1029.57 1028.59 1027.60 1026.71 1026.04 1025.68 1025.68 1026.06 1026.81 1027.88 1029.17 1030.58 1032.02 1033.38 1034.59 1035.59 1036.36 1036.91 1037.26 1037.45 1037.53 1037.52 1037.46 1037.36 1037.21 1036.99 1036.71 1036.33 1035.87 1035.32 1034.70 1034.03 1033.35 1032.67 1032.00 1031.35 1030.70 1030.03 1029.32 1028.54 1027.69 1026.76 1025.78
1030.29 1029.35 1028.29 1027.24 1026.30 1025.61 1025.26 1025.30 1025.76 1026.59 1027.75 1029.13 1030.62 1032.10 1033.48 1034.68 1035.65 1036.37 1036.87 1037.17 1037.32 1037.37 1037.37 1037.33 1037.25 1037.14 1036.97 1036.72 1036.37 1035.91 1035.36 1034.73 1034.06 1033.36 1032.68 1032.03 1031.41 1030.81 1030.21 1029.59 1028.92 1028.17 1027.36 1026.49
1029.73 1028.78 1027.72 1026.69 1025.79 1025.16 1024.88 1025.00 1025.54 1026.45 1027.68 1029.11 1030.63 1032.13 1033.50 1034.67 1035.60 1036.28 1036.73 1037.00 1037.14 1037.19 1037.20 1037.18 1037.14 1037.07 1036.93 1036.70 1036.37 1035.92 1035.36 1034.72 1034.03 1033.33 1032.64 1032.00 1031.40 1030.84 1030.29 1029.74 1029.15 1028.49 1027.77 1026.99
1028.74 1027.85 1026.89 1025.96 1025.20 1024.70 1024.54 1024.78 1025.41 1026.40 1027.66 1029.11 1030.63 1032.10 1033.43 1034.55 1035.43 1036.08 1036.50 1036.76 1036.90 1036.97 1037.01 1037.02 1037.02 1036.97 1036.85 1036.64 1036.32 1035.87 1035.31 1034.66 1033.97 1033.26 1032.57 1031.93 1031.34 1030.80 1030.28 1029.76 1029.22 1028.63 1027.97 1027.26
1027.38 1026.62 1025.83 1025.11 1024.55 1024.25 1024.28 1024.66 1025.40 1026.44 1027.73 1029.16 1030.62 1032.03 1033.29 1034.35 1035.18 1035.79 1036.20 1036.46 1036.62 1036.72 1036.79 1036.84 1036.86 1036.84 1036.74 1036.54 1036.21 1035.77 1035.21 1034.57 1033.88 1033.17 1032.48 1031.84 1031.25 1030.71 1030.20 1029.69 1029.16 1028.59 1027.97 1027.31
1025.79 1025.22 1024.67 1024.21 1023.92 1023.87 1024.11 1024.66 1025.50 1026.59 1027.87 1029.25 1030.64 1031.95 1033.12 1034.10 1034.87 1035.45 1035.86 1036.13 1036.32 1036.45 1036.56 1036.63 1036.68 1036.67 1036.58 1036.38 1036.06 1035.62 1035.08 1034.45 1033.77 1033.08 1032.41 1031.77 1031.18 1030.63 1030.10 1029.57 1029.03 1028.45 1027.83 1027.19
1024.13 1023.78 1023.50 1023.34 1023.36 1023.59 1024.07 1024.78 1025.72 1026.85 1028.10 1029.40 1030.69 1031.89 1032.95 1033.84 1034.56 1035.11 1035.51 1035.81 1036.02 1036.19 1036.32 1036.42 1036.48 1036.47 1036.37 1036.18 1035.86 1035.44 1034.91 1034.31 1033.66 1033.01 1032.36 1031.73 1031.14 1030.57 1030.02 1029.45 1028.87 1028.26 1027.62 1026.97
1022.54 1022.42 1022.43 1022.59 1022.92 1023.44 1024.13 1025.01 1026.04 1027.18 1028.38 1029.60 1030.77 1031.85 1032.80 1033.61 1034.27 1034.80 1035.21 1035.52 1035.76 1035.96 1036.11 1036.21 1036.27 1036.25 1036.14 1035.93 1035.62 1035.21 1034.71 1034.15 1033.55 1032.94 1032.33 1031.73 1031.15 1030.57 1029.98 1029.38 1028.75 1028.09 1027.41 1026.73
1021.12 1021.23 1021.52 1021.98 1022.60 1023.37 1024.28 1025.29 1026.38 1027.53 1028.67 1029.80 1030.85 1031.82 1032.67 1033.41 1034.02 1034.53 1034.94 1035.28 1035.54 1035.75 1035.91 1036.01 1036.05 1036.00 1035.88 1035.65 1035.34 1034.94 1034.48 1033.97 1033.43 1032.87 1032.32 1031.76 1031.19 1030.61 1030.00 1029.35 1028.67 1027.96 1027.24 1026.53
1019.92 1020.24 1020.77 1021.49 1022.37 1023.36 1024.43 1025.55 1026.69 1027.82 1028.91 1029.94 1030.89 1031.76 1032.53 1033.21 1033.79 1034.29 1034.71 1035.06 1035.35 1035.57 1035.73 1035.81 1035.82 1035.74 1035.58 1035.34 1035.02 1034.64 1034.22 1033.76 1033.28 1032.79 1032.30 1031.78 1031.25 1030.67 1030.05 1029.37 1028.65 1027.90 1027.13 1026.38
1018.90 1019.41 1020.15 1021.09 1022.17 1023.33 1024.53 1025.72 1026.88 1027.98 1029.01 1029.97 1030.84 1031.63 1032.34 1032.98 1033.55 1034.05 1034.49 1034.86 1035.16 1035.39 1035.53 1035.59 1035.57 1035.46 1035.27 1035.01 1034.69 1034.32 1033.93 1033.53 1033.11 1032.69 1032.25 1031.79 1031.29 1030.73 1030.11 1029.42 1028.68 1027.89 1027.09 1026.31
1018.02 1018.69 1019.60 1020.71 1021.94 1023.22 1024.49 1025.73 1026.89 1027.96 1028.94 1029.83 1030.63 1031.37 1032.05 1032.67 1033.24 1033.76 1034.22 1034.61 1034.93 1035.16 1035.30 1035.34 1035.28 1035.14 1034.93 1034.65 1034.33 1033.99 1033.64 1033.28 1032.93 1032.57 1032.19 1031.78 1031.31 1030.78 1030.17 1029.49 1028.73 1027.93 1027.11 1026.31
1017.21 1018.02 1019.08 1020.31 1021.63 1022.98 1024.29 1025.53 1026.68 1027.71 1028.65 1029.49 1030.26 1030.97 1031.63 1032.26 1032.85 1033.39 1033.87 1034.29 1034.62 1034.85 1034.98 1035.01 1034.94 1034.78 1034.56 1034.28 1033.97 1033.66 1033.34 1033.04 1032.74 1032.44 1032.11 1031.75 1031.32 1030.82 1030.23 1029.56 1028.81 1028.01 1027.18 1026.37
1016.44 1017.37 1018.54 1019.85 1021.23 1022.61 1023.92 1025.15 1026.26 1027.26 1028.15 1028.97 1029.71 1030.41 1031.08 1031.72 1032.33 1032.90 1033.41 1033.85 1034.19 1034.44 1034.57 1034.60 1034.53 1034.38 1034.16 1033.90 1033.62 1033.35 1033.08 1032.82 1032.57 1032.32 1032.04 1031.71 1031.32 1030.85 1030.29 1029.64 1028.92 1028.13 1027.32 1026.51
1015.68 1016.74 1017.99 1019.35 1020.74 1022.11 1023.40 1024.59 1025.66 1026.62 1027.49 1028.28 1029.02 1029.72 1030.40 1031.06 1031.70 1032.29 1032.82 1033.28 1033.64 1033.90 1034.05 1034.09 1034.04 1033.92 1033.73 1033.52 1033.29 1033.06 1032.85 1032.64 1032.44 1032.23 1031.99 1031.70 1031.35 1030.91 1030.38 1029.76 1029.06 1028.31 1027.52 1026.72
1014.98 1016.14 1017.44 1018.82 1020.21 1021.54 1022.79 1023.93 1024.96 1025.88 1026.72 1027.50 1028.24 1028.95 1029.64 1030.32 1030.97 1031.58 1032.13 1032.60 1032.97 1033.25 1033.42 1033.50 1033.49 1033.41 1033.28 1033.13 1032.97 1032.81 1032.66 1032.52 1032.37 1032.20 1031.99 1031.73 1031.40 1030.99 1030.49 1029.91 1029.25 1028.53 1027.77 1026.99
1014.37 1015.61 1016.94 1018.32 1019.66 1020.94 1022.13 1023.21 1024.19 1025.08 1025.90 1026.68 1027.42 1028.14 1028.84 1029.53 1030.18 1030.80 1031.35 1031.83 1032.22 1032.51 1032.71 1032.83 1032.87 1032.86 1032.81 1032.74 1032.66 1032.59 1032.51 1032.42 1032.32 1032.20 1032.02 1031.79 1031.48 1031.09 1030.63 1030.08 1029.46 1028.78 1028.06 1027.30
1013.89 1015.17 1016.51 1017.85 1019.13 1020.34 1021.46 1022.48 1023.41 1024.28 1025.08 1025.85 1026.60 1027.33 1028.04 1028.73 1029.38 1029.99 1030.54 1031.01 1031.41 1031.72 1031.95 1032.11 1032.22 1032.28 1032.32 1032.34 1032.36 1032.37 1032.36 1032.34 1032.29 1032.21 1032.06 1031.85 1031.56 1031.20 1030.76 1030.25 1029.67 1029.03 1028.34 1027.61
1013.55 1014.84 1016.14 1017.41 1018.61 1019.74 1020.78 1021.75 1022.64 1023.48 1024.28 1025.05 1025.80 1026.54 1027.25 1027.94 1028.59 1029.19 1029.72 1030.19 1030.58 1030.90 1031.17 1031.38 1031.55 1031.69 1031.82 1031.93 1032.04 1032.13 1032.20 1032.25 1032.24 1032.19 1032.07 1031.88 1031.61 1031.27 1030.86 1030.38 1029.83 1029.23 1028.57 1027.86
1013.32 1014.57 1015.80 1016.98 1018.09 1019.12 1020.09 1021.00 1021.86 1022.68 1023.48 1024.26 1025.03 1025.78 1026.50 1027.18 1027.82 1028.41 1028.93 1029.38 1029.77 1030.10 1030.39 1030.65 1030.88 1031.10 1031.30 1031.50 1031.69 1031.86 1032.00 1032.09 1032.13 1032.11 1032.01 1031.83 1031.58 1031.26 1030.87 1030.42 1029.91 1029.34 1028.72 1028.03
1013.16 1014.32 1015.44 1016.50 1017.51 1018.45 1019.35 1020.21 1021.04 1021.86 1022.67 1023.47 1024.25 1025.02 1025.75 1026.44 1027.07 1027.64 1028.15 1028.59 1028.98 1029.33 1029.64 1029.94 1030.22 1030.50 1030.78 1031.05 1031.31 1031.54 1031.73 1031.87 1031.94 1031.93 1031.85 1031.68 1031.44 1031.13 1030.76 1030.34 1029.86 1029.33 1028.74 1028.08
1012.98 1014.01 1015.00 1015.93 1016.82 1017.68 1018.51 1019.33 1020.15 1020.98 1021.80 1022.63 1023.44 1024.23 1024.98 1025.67 1026.31 1026.88 1027.38 1027.83 1028.22 1028.58 1028.92 1029.25 1029.58 1029.91 1030.25 1030.57 1030.89 1031.16 1031.39 1031.55 1031.64 1031.65 1031.57 1031.41 1031.17 1030.88 1030.53 1030.12 1029.67 1029.17 1028.62 1027.99
1012.69 1013.57 1014.42 1015.22 1016.01 1016.79 1017.57 1018.36 1019.17 1020.01 1020.86 1021.72 1022.56 1023.38 1024.15 1024.86 1025.51 1026.08 1026.59 1027.05 1027.46 1027.84 1028.20 1028.57 1028.94 1029.31 1029.69 1030.06 1030.41 1030.71 1030.96 1031.14 1031.24 1031.25 1031.17 1031.01 1030.78 1030.50 1030.16 1029.78 1029.35 1028.88 1028.36 1027.77
Thickness
5623 5622 5617 5612 5606 5595 5581 5572 5563 5570 5564 5557 5530 5505 5481 5458 5438 5420 5401 5383 5366 5349 5333 5318 5303 5290 5277 5265 5254 5242 5231 5219 5209 5198 5186 5175 5162 5147 5131 5114 5101 5095 5094 5098
5623 5624 5615 5612 5609 5596 5585 5575 5566 5566 5562 5550 5519 5494 5472 5451 5435 5417 5397 5380 5364 5347 5331 5315 5300 5287 5275 5263 5252 5240 5228 5217 5207 5196 5186 5174 5162 5147 5131 5116 5105 5099 5097 5101
5614 5610 5618 5617 5619 5600 5590 5579 5573 5567 5562 5525 5507 5491 5469 5448 5431 5413 5395 5378 5361 5343 5327 5312 5297 5285 5272 5261 5250 5238 5227 5217 5207 5196 5185 5175 5162 5149 5134 5120 5108 5102 5100 5102
5598 5607 5615 5630 5619 5608 5598 5592 5578 5571 5554 5529 5510 5484 5463 5444 5426 5408 5392 5375 5357 5339 5324 5309 5296 5283 5271 5260 5249 5238 5228 5218 5208 5198 5187 5177 5165 5152 5138 5124 5113 5105 5102 5102
5587 5592 5602 5619 5615 5606 5596 5593 5587 5568 5542 5512 5485 5467 5450 5439 5423 5405 5389 5371 5354 5338 5322 5308 5295 5282 5270 5259 5249 5239 5231 5221 5210 5200 5190 5180 5169 5157 5144 5131 5119 5110 5105 5103
5574 5590 5601 5628 5614 5603 5593 5582 5585 5562 5535 5506 5485 5476 5465 5438 5419 5402 5386 5369 5352 5336 5321 5307 5294 5282 5270 5259 5249 5241 5232 5223 5213 5203 5193 5183 5172 5161 5150 5138 5127 5117 5109 5105
5573 5576 5605 5624 5604 5596 5586 5598 5584 5559 5537 5513 5496 5486 5462 5436 5416 5400 5384 5368 5351 5335 5320 5306 5294 5282 5270 5259 5250 5241 5233 5224 5216 5207 5197 5187 5176 5166 5155 5145 5133 5123 5116 5109
5566 5566 5602 5616 5596 5595 5602 5590 5572 5553 5535 5515 5492 5470 5451 5433 5415 5398 5382 5366 5350 5334 5320 5306 5294 5282 5270 5260 5251 5242 5234 5226 5218 5210 5201 5193 5182 5174 5164 5154 5144 5134 5125 5118
5608 5628 5640 5619 5615 5611 5595 5582 5566 5547 5528 5506 5483 5466 5449 5430 5412 5396 5380 5364 5348 5333 5320 5307 5294 5283 5271 5262 5253 5244 5236 5228 5221 5215 5207 5198 5190 5182 5174 5165 5156 5146 5136 5128
5616 5636 5636 5620 5612 5605 5592 5581 5564 5545 5524 5505 5484 5464 5446 5430 5412 5395 5379 5363 5348 5334 5320 5307 5295 5284 5273 5264 5256 5247 5239 5232 5226 5219 5212 5204 5197 5190 5182 5173 5166 5157 5146 5138
5623 5635 5630 5627 5613 5604 5589 5573 5556 5539 5522 5504 5484 5462 5443 5427 5412 5395 5381 5364 5348 5334 5321 5307 5296 5285 5276 5267 5258 5249 5242 5236 5229 5224 5216 5209 5202 5195 5189 5181 5174 5166 5157 5149
5645 5650 5637 5637 5621 5603 5585 5570 5554 5536 5515 5498 5482 5462 5443 5427 5411 5395 5380 5364 5349 5335 5322 5309 5297 5287 5278 5270 5261 5253 5246 5240 5233 5228 5221 5214 5206 5200 5194 5188 5182 5175 5168 5160
5658 5651 5638 5631 5615 5600 5587 5570 5552 5536 5517 5494 5476 5460 5443 5426 5411 5395 5380 5364 5350 5337 5324 5311 5299 5289 5280 5272 5265 5257 5249 5243 5237 5232 5225 5219 5213 5206 5200 5196 5189 5183 5176 5170
5646 5634 5628 5617 5606 5594 5580 5562 5545 5528 5510 5492 5474 5457 5441 5424 5409 5394 5379 5365 5351 5338 5325 5313 5301 5291 5283 5275 5267 5260 5253 5247 5242 5234 5228 5222 5216 5211 5205 5200 5196 5191 5185 5178
5640 5633 5628 5613 5597 5582 5568 5552 5534 5517 5500 5484 5468 5453 5438 5423 5408 5394 5379 5365 5352 5339 5327 5314 5303 5294 5286 5278 5271 5264 5257 5250 5245 5238 5232 5226 5221 5216 5210 5205 5201 5197 5193 5188
5635 5621 5610 5599 5589 5575 5560 5548 5536 5518 5499 5481 5464 5450 5437 5423 5408 5393 5379 5366 5353 5341 5328 5316 5306 5297 5289 5280 5273 5267 5259 5255 5249 5242 5235 5230 5225 5220 5215 5210 5206 5203 5199 5196
5621 5611 5602 5594 5585 5573 5564 5555 5543 5523 5502 5482 5465 5448 5432 5418 5405 5392 5379 5367 5354 5342 5330 5319 5309 5300 5291 5283 5275 5269 5262 5255 5251 5244 5238 5233 5229 5223 5217 5213 5209 5205 5202 5200
5646 5635 5621 5611 5597 5578 5564 5551 5538 5520 5502 5484 5463 5445 5431 5420 5409 5395 5381 5366 5353 5342 5332 5322 5312 5302 5293 5285 5278 5271 5264 5257 5251 5245 5241 5236 5233 5226 5220 5215 5211 5208 5205 5203
5640 5629 5618 5609 5598 5583 5568 5551 5535 5518 5499 5480 5462 5447 5434 5422 5409 5395 5380 5366 5355 5344 5335 5324 5315 5305 5296 5288 5281 5273 5265 5258 5252 5247 5242 5239 5233 5228 5223 5219 5214 5211 5208 5206
5633 5622 5612 5602 5590 5578 5565 5549 5531 5513 5496 5479 5462 5445 5430 5419 5407 5394 5380 5368 5359 5349 5338 5326 5316 5306 5298 5290 5283 5274 5267 5260 5253 5247 5243 5239 5235 5230 5226 5222 5217 5214 5211 5207
5625 5615 5605 5595 5582 5571 5560 5545 5528 5510 5493 5478 5463 5449 5435 5420 5407 5394 5380 5370 5361 5350 5339 5329 5319 5309 5300 5292 5284 5276 5268 5261 5255 5248 5243 5238 5234 5230 5226 5222 5218 5215 5212 5208
5618 5609 5600 5588 5576 5564 5552 5538 5524 5508 5491 5476 5462 5447 5433 5418 5405 5393 5384 5375 5364 5353 5341 5330 5320 5311 5302 5294 5285 5277 5270 5263 5256 5250 5244 5238 5233 5229 5225 5221 5218 5215 5211 5208
5613 5604 5594 5583 5571 5558 5543 5531 5518 5505 5490 5477 5463 5449 5437 5425 5411 5398 5388 5376 5364 5355 5343 5332 5322 5313 5305 5294 5285 5277 5270 5264 5257 5251 5244 5238 5233 5228 5224 5220 5217 5214 5211 5209
5605 5596 5585 5573 5560 5547 5535 5524 5512 5500 5487 5476 5464 5452 5439 5425 5411 5401 5392 5382 5369 5357 5345 5334 5325 5316 5306 5294 5286 5278 5271 5264 5258 5252 5245 5239 5233 5228 5223 5219 5216 5213 5211 5209
5595 5585 5574 5563 5553 5546 5534 5518 5503 5490 5478 5468 5457 5446 5436 5427 5416 5403 5390 5380 5370 5359 5346 5335 5327 5318 5306 5295 5286 5278 5271 5265 5259 5253 5246 5239 5233 5228 5223 5219 5215 5213 5211 5210
5584 5578 5571 5563 5555 5543 5528 5514 5502 5490 5478 5466 5454 5444 5433 5422 5411 5400 5389 5378 5368 5358 5346 5335 5326 5318 5306 5296 5287 5280 5272 5266 5259 5253 5247 5240 5234 5228 5223 5219 5216 5213 5212 5210
5569 5563 5555 5546 5540 5533 5523 5513 5504 5492 5481 5471 5458 5445 5433 5420 5409 5398 5387 5377 5366 5357 5346 5335 5326 5317 5307 5298 5289 5281 5274 5267 5260 5254 5248 5241 5235 5229 5224 5219 5216 5214 5213 5212